This is the latest recevied weather packets stored in our database for station/object K9RCP-20. If no packets are shown the sender has not sent any weather packets the latest 10 day(s).
| Time | Temp. | Humidity | Pressure | Rain* | Wind** | Luminosity | Snow |
|---|---|---|---|---|---|---|---|
| 1778279744 | 19.44° C | 52% | 1019 hPa | 0 mm | - | 569 W/m² | - |
| 1778279441 | 20° C | 49% | 1018.9 hPa | 0 mm | - | 574 W/m² | - |
| 1778279139 | 18.89° C | 50% | 1019.1 hPa | 0 mm | - | 583 W/m² | - |
| 1778278836 | 20.56° C | 49% | 1019 hPa | 0 mm | - | 592 W/m² | - |
| 1778278532 | 18.89° C | 51% | 1019 hPa | 0 mm | - | 605 W/m² | - |
| 1778278228 | 19.44° C | 51% | 1019.1 hPa | 0 mm | - | 612 W/m² | - |
| 1778277925 | 18.89° C | 50% | 1019.2 hPa | 0 mm | - | 629 W/m² | - |
| 1778277621 | 19.44° C | 49% | 1019.1 hPa | 0 mm | - | 631 W/m² | - |
| 1778277318 | 20° C | 49% | 1019.1 hPa | 0 mm | - | 642 W/m² | - |
| 1778277015 | 20° C | 47% | 1019.3 hPa | 0 mm | - | 647 W/m² | - |
| 1778276712 | 20° C | 47% | 1019.3 hPa | 0 mm | - | 658 W/m² | - |
| 1778276408 | 19.44° C | 47% | 1018.8 hPa | 0 mm | - | 660 W/m² | - |
| 1778276106 | 19.44° C | 50% | 1019 hPa | 0 mm | - | 663 W/m² | - |
| 1778275801 | 19.44° C | 50% | 1019.3 hPa | 0 mm | - | 673 W/m² | - |
| 1778275498 | 18.89° C | 50% | 1019.3 hPa | 0 mm | - | 675 W/m² | - |
| 1778275194 | 18.33° C | 52% | 1019.1 hPa | 0 mm | - | 682 W/m² | - |
| 1778274890 | 18.89° C | 49% | 1019.3 hPa | 0 mm | - | 684 W/m² | - |
| 1778274587 | 18.33° C | 49% | 1019.2 hPa | 0 mm | - | 690 W/m² | - |
| 1778274283 | 18.33° C | 50% | 1019.3 hPa | 0 mm | - | 700 W/m² | - |
| 1778273979 | 18.33° C | 49% | 1019.3 hPa | 0 mm | - | 706 W/m² | - |
| 1778273677 | 18.33° C | 50% | 1019.3 hPa | 0 mm | - | 700 W/m² | - |
| 1778273373 | 18.33° C | 51% | 1019.2 hPa | 0 mm | - | 704 W/m² | - |
| 1778273071 | 18.33° C | 53% | 1019.1 hPa | 0 mm | - | 712 W/m² | - |
| 1778272766 | 17.78° C | 51% | 1019.1 hPa | 0 mm | - | 720 W/m² | - |
| 1778272462 | 18.33° C | 50% | 1019.2 hPa | 0 mm | - | 722 W/m² | - |
* Rain latest hour (hover to see other rain measurements)
** Current wind speed in m/s (hover to see current wind gust speed)